Auburn, IN

4:33 PM EST on December 06, 2019 (GMT -0500)
Auburn

Weather History for KGWB - August, 2019

Change the Weather History Date:

Monday, August 26, 2019

  Actual Average (KFWA) Record (KFWA)
Temperature  
Mean Temperature 64 °F -  
Max Temperature 69 °F 83 °F 96 °F (1948)
Min Temperature 59 °F 60 °F 45 °F (1907)
Degree Days  
Heating Degree Days 1    
Growing Degree Days 14 (Base 50)    
Moisture  
Dew Point 62 °F    
Average Humidity 93    
Maximum Humidity 100    
Minimum Humidity 82    
Precipitation  
Precipitation 0.45 in - - ()
Sea Level Pressure  
Sea Level Pressure 29.93 in    
Wind  
Wind Speed 6 mph (ESE)    
Max Wind Speed 9 mph    
Max Gust Speed -    
Visibility 8 miles    
Events Rain    
Averages and records for this station are not official NWS values.
T = Trace of Precipitation, MM = Missing Value Source: NWS Daily Summary

Daily Weather History Graph

Daily Weather History Graph

Search for Another Location

Airport or City:

Astronomy

Aug. 26, 2019 Rise Set
Actual Time 7:00 AM EDT 8:23 PM EDT
Civil Twilight 6:31 AM EDT 8:51 PM EDT
Nautical Twilight 5:56 AM EDT 9:26 PM EDT
Astronomical Twilight 5:20 AM EDT 10:02 PM EDT
Moon 2:22 AM EDT (8/26) 5:48 PM EDT (8/26)
Length of Visible Light 14h 20m
Length of Day
13h 22m
Waning Crescent, 19% of the Moon is Illuminated
Aug 26
Waning Crescent
Aug 30
New
Sep 5
First Quarter
Sep 14
Full
Sep 21
Last Quarter

Hourly Weather History & Observations

Time (EDT) Temp. Dew Point Humidity Pressure Visibility Wind Dir Wind Speed Gust Speed Precip Events Conditions
12:15 AM 60.8 °F 57.2 °F 88% 30.05 in 10.0 mi East 6.9 mph - N/A   Clear
12:35 AM 60.8 °F 55.4 °F 82% 30.05 in 10.0 mi East 4.6 mph - N/A   Clear
12:55 AM 60.8 °F 55.4 °F 82% 30.05 in 10.0 mi East 4.6 mph - N/A   Clear
1:15 AM 60.8 °F 55.4 °F 82% 30.05 in 10.0 mi East 4.6 mph - N/A   Clear
1:35 AM 60.8 °F 55.4 °F 82% 30.04 in 10.0 mi East 5.8 mph - N/A   Clear
1:55 AM 60.8 °F 55.4 °F 82% 30.04 in 10.0 mi East 5.8 mph - N/A   Clear
2:15 AM 60.8 °F 55.4 °F 82% 30.03 in 10.0 mi East 4.6 mph - N/A   Clear
2:35 AM 60.8 °F 55.4 °F 82% 30.03 in 10.0 mi East 5.8 mph - N/A   Clear
2:55 AM 60.8 °F 55.4 °F 82% 30.02 in 10.0 mi East 5.8 mph - N/A   Clear
3:15 AM 59.0 °F 55.4 °F 88% 30.01 in 10.0 mi East 6.9 mph - N/A   Clear
3:35 AM 59.0 °F 55.4 °F 88% 30.01 in 10.0 mi East 5.8 mph - N/A   Clear
3:55 AM 59.0 °F 55.4 °F 88% 30.00 in 10.0 mi East 6.9 mph - N/A   Clear
4:15 AM 59.0 °F 55.4 °F 88% 30.00 in 10.0 mi East 6.9 mph - N/A   Clear
4:35 AM 60.8 °F 55.4 °F 82% 30.00 in 10.0 mi East 5.8 mph - N/A   Clear
4:55 AM 59.0 °F 55.4 °F 88% 30.00 in 10.0 mi East 5.8 mph - N/A   Scattered Clouds
5:15 AM 60.8 °F 55.4 °F 82% 30.00 in 10.0 mi East 6.9 mph - N/A   Mostly Cloudy
5:35 AM 60.8 °F 55.4 °F 82% 29.99 in 10.0 mi East 6.9 mph - N/A   Mostly Cloudy
5:55 AM 60.8 °F 55.4 °F 82% 29.99 in 10.0 mi East 5.8 mph - N/A   Overcast
6:15 AM 60.8 °F 55.4 °F 82% 29.99 in 10.0 mi East 4.6 mph - N/A   Overcast
6:35 AM 60.8 °F 55.4 °F 82% 29.99 in 10.0 mi East 5.8 mph - N/A   Overcast
6:55 AM 60.8 °F 55.4 °F 82% 29.99 in 10.0 mi East 6.9 mph - N/A   Overcast
7:15 AM 60.8 °F 55.4 °F 82% 29.98 in 10.0 mi East 8.1 mph - N/A   Overcast
7:35 AM 60.8 °F 55.4 °F 82% 29.98 in 10.0 mi East 5.8 mph - N/A   Mostly Cloudy
7:55 AM 60.8 °F 55.4 °F 82% 29.97 in 10.0 mi East 6.9 mph - N/A   Mostly Cloudy
8:15 AM 60.8 °F 55.4 °F 82% 29.97 in 10.0 mi East 5.8 mph - N/A   Mostly Cloudy
8:35 AM 62.6 °F 57.2 °F 82% 29.98 in 10.0 mi East 4.6 mph - N/A   Overcast
8:55 AM 62.6 °F 57.2 °F 82% 29.97 in 10.0 mi East 5.8 mph - N/A   Overcast
9:15 AM 62.6 °F 57.2 °F 82% 29.97 in 10.0 mi East 5.8 mph - N/A   Overcast
9:35 AM 60.8 °F 59.0 °F 94% 29.97 in 2.5 mi East 6.9 mph - 0.07 in Rain Light Rain
9:55 AM 60.8 °F 60.8 °F 100% 29.97 in 10.0 mi East 6.9 mph - 0.07 in   Overcast
10:15 AM 60.8 °F 59.0 °F 94% 29.96 in 7.0 mi East 5.8 mph - 0.02 in Rain Light Rain
10:35 AM 60.8 °F 60.8 °F 100% 29.96 in 10.0 mi ESE 6.9 mph - 0.02 in   Overcast
10:55 AM 60.8 °F 60.8 °F 100% 29.96 in 10.0 mi East 5.8 mph - 0.02 in   Overcast
11:15 AM 62.6 °F 60.8 °F 94% 29.95 in 10.0 mi East 5.8 mph - N/A   Overcast
11:35 AM 62.6 °F 60.8 °F 94% 29.95 in 4.0 mi East 4.6 mph - N/A Rain Light Rain
11:55 AM 62.6 °F 62.6 °F 100% 29.95 in 3.0 mi East 4.6 mph - 0.06 in Rain Rain
12:15 PM 62.6 °F 62.6 °F 100% 29.94 in 2.5 mi East 6.9 mph - 0.12 in Rain Light Rain
12:35 PM 62.6 °F 62.6 °F 100% 29.93 in 5.0 mi East 5.8 mph - 0.16 in Rain Light Rain
12:55 PM 62.6 °F 62.6 °F 100% 29.93 in 5.0 mi East 9.2 mph - 0.16 in   Light Drizzle
1:15 PM 64.4 °F 64.4 °F 100% 29.92 in 1.8 mi ESE 5.8 mph - 0.01 in Rain Rain
1:35 PM 64.4 °F 64.4 °F 100% 29.91 in 1.8 mi ESE 5.8 mph - 0.02 in   Drizzle
1:55 PM 64.4 °F 64.4 °F 100% 29.91 in 2.5 mi ESE 6.9 mph - 0.05 in   Drizzle
2:15 PM 64.4 °F 64.4 °F 100% 29.90 in 3.0 mi ESE 5.8 mph - N/A Rain Rain
2:35 PM 66.2 °F 66.2 °F 100% 29.90 in 5.0 mi SE 5.8 mph - N/A   Overcast
2:55 PM 68.0 °F 68.0 °F 100% 29.89 in 7.0 mi SE 5.8 mph - N/A   Overcast
3:15 PM 68.0 °F 68.0 °F 100% 29.88 in 7.0 mi SE 4.6 mph - N/A   Overcast
3:35 PM 68.0 °F 68.0 °F 100% 29.88 in 10.0 mi SE 5.8 mph - N/A   Overcast
3:55 PM 68.0 °F 68.0 °F 100% 29.87 in 10.0 mi ESE 3.5 mph - N/A Rain Rain
4:15 PM 68.0 °F 68.0 °F 100% 29.86 in 7.0 mi SE 5.8 mph - N/A   Drizzle
4:35 PM 68.0 °F 68.0 °F 100% 29.86 in 7.0 mi ESE 4.6 mph - N/A   Drizzle
4:55 PM 68.0 °F 68.0 °F 100% 29.85 in 7.0 mi SE 6.9 mph - 0.01 in Rain Rain
5:15 PM 68.0 °F 68.0 °F 100% 29.85 in 7.0 mi ESE 5.8 mph - 0.01 in Rain Light Rain
5:35 PM 68.0 °F 68.0 °F 100% 29.84 in 3.0 mi ESE 6.9 mph - 0.01 in   Light Drizzle
5:55 PM 68.0 °F 68.0 °F 100% 29.84 in 2.5 mi SE 4.6 mph - 0.01 in Rain Light Rain
6:15 PM 68.0 °F 68.0 °F 100% 29.83 in 10.0 mi SSE 4.6 mph - N/A   Overcast
6:35 PM 68.0 °F 68.0 °F 100% 29.82 in 10.0 mi ESE 6.9 mph - N/A   Overcast
6:55 PM 68.0 °F 68.0 °F 100% 29.82 in 10.0 mi ESE 5.8 mph - N/A   Overcast
7:15 PM 69.8 °F 68.0 °F 94% 29.82 in 4.0 mi South 4.6 mph - N/A Rain Rain
7:35 PM 69.8 °F 69.8 °F 100% 29.82 in 2.5 mi SE 3.5 mph - 0.01 in   Drizzle
7:55 PM 69.8 °F 69.8 °F 100% 29.81 in 2.0 mi SE 5.8 mph - 0.02 in Rain Heavy Rain
8:15 PM 69.8 °F 69.8 °F 100% 29.82 in 3.0 mi SE 3.5 mph - N/A   Heavy Drizzle
8:35 PM 69.8 °F 69.8 °F 100% 29.82 in 2.5 mi South 3.5 mph - 0.02 in   Drizzle
8:55 PM 69.8 °F 69.8 °F 100% 29.82 in 3.0 mi SE 3.5 mph - 0.02 in   Drizzle
9:15 PM 69.8 °F 69.8 °F 100% 29.83 in 5.0 mi South 4.6 mph - 0.01 in   Overcast
9:35 PM 69.8 °F 69.8 °F 100% 29.83 in 3.0 mi South 4.6 mph - 0.01 in Rain Rain
9:55 PM 68.0 °F 68.0 °F 100% 29.83 in 4.0 mi South 5.8 mph - 0.01 in   Light Drizzle
10:15 PM 68.0 °F 68.0 °F 100% 29.83 in 10.0 mi South 4.6 mph - N/A   Overcast
10:35 PM 69.8 °F 68.0 °F 94% 29.83 in 10.0 mi South 5.8 mph - N/A   Overcast
10:55 PM 69.8 °F 68.0 °F 94% 29.82 in 10.0 mi South 5.8 mph - N/A Rain Light Rain
11:35 PM 69.8 °F 69.8 °F 100% 29.82 in 7.0 mi South 4.6 mph - 0.01 in   Overcast
11:55 PM 69.8 °F 69.8 °F 100% 29.82 in 10.0 mi South 4.6 mph - 0.02 in   Overcast